Accueil
METAR-TAF:

METAR-TAF

Aéroports :

Sandberg, Californie, États-Unis

latitude: 34-44-37N, longitude: 118-43-28W, altitude: 1378 m

Observation

Le bulletin a été fait il y a 16 minutes, à 13:53 UTC
Vent 8 kt de sud
Température 9°C
Humidité 29%
Pression 1019 hPa
Visibilité: 16.1 km
Ciel clair

METAR: KSDB 291353Z AUTO 19008KT 10SM CLR 09/M08 A3010 RMK AO2 SLP161 T00941083

Heure: 06:09 (14:09 UTC)


TAF: absent

Observations et prévisions météorologiques de plus de 4000 aéroports (messages METAR et TAF).

Les stations disponibles sont représentées par des disques jaunes et rouges sur la carte.

Passer la souris dessus pour voir le nom de la station.

Cliquer dessus pour voir les observations et prévisions météorologiques.

Pour changer de carte: cliquez sur les boutons verts avec une croix noire pour zoomer, sur le bouton vert avec un tiret pour effectuer un zoom arrière, ou sur les flèches vertes pour les cartes adjacentes.


METAR-TAF: